[[{"header":{"parameterUnit":"m.s-1","parameterCategory":1,"la1":30.2991,"la2":30.254,"lo1":-89.0895,"lo2":-89.0444,"dy":0.0017,"dx":0.0017,"nx":28,"ny":28,"refTime":"2025-08-24T09:00:00:Z","depth":0,"parameterNumber":2,"parameterNumberName":"U-component_of_WINDS"},"data":[0,0,0,0,0,0,0,0,0,0,0,0,0,0,0,0,0,0,0,0,0,0,0,0,0,0,0,0,0,0,0,0,0,0,0,0,0,0,0,0,0,0,0,0,0,0,0,0,0,0,0,0,0,0,0,0,0,0,0.1771,0.1772,0,0.1803,0.1804,0.1804,0.1794,0.1793,0.1792,0.1792,0.1828,0.1829,0.1831,0,0,0,0,0,0,0,0,0,0,0,0,0,0.1705,0.1706,0.1771,0.1772,0.1772,0.1803,0.1804,0.1804,0.1794,0.1793,0.1792,0.1791,0.1827,0.1829,0.1831,0,0,0,0,0,0,0,0,0,0,0,0,0,0.1735,0.1706,0.1771,0.1771,0.1771,0.1803,0.1804,0.1804,0.1794,0.1793,0.1792,0.1791,0.1826,0.1829,0.1831,0.1867,0,0,0.1838,0.184,0,0,0,0,0,0,0,0,0.1733,0.1737,0.177,0.1771,0.1771,0.1793,0.1793,0.1825,0.1794,0.1785,0.1792,0.1791,0.1817,0.182,0.1829,0.1869,0.187,0.1839,0.184,0.1841,0.1842,0,0,0,0,0,0,0,0.1731,0.1736,0.1784,0.1771,0.1771,0.177,0.1773,0.1799,0.1807,0.1786,0.1785,0.1789,0.1817,0.1826,0.183,0.1871,0.1839,0.1841,0.1842,0.1843,0.1944,0.1945,0,0,0,0,0,0,0.1728,0.1734,0.1783,0.1785,0.1749,0.1772,0.1776,0.1787,0.1807,0.1808,0.179,0.1789,0.1823,0.1827,0.1831,0.1876,0.1841,0.1843,0.1845,0.1943,0.1944,0.1946,0,0,0,0,0,0,0.1727,0.1733,0.1782,0.1759,0.1766,0.1774,0.1788,0.1789,0.1798,0.1809,0.1811,0.1798,0.1822,0.1827,0.1858,0.1877,0.1844,0.1847,0.1941,0.1943,0.1945,0.1964,0,0,0,0,0,0,0.1725,0.1732,0.1745,0.176,0.1767,0.1808,0.1789,0.179,0.1802,0.18,0.1817,0.1819,0.1822,0.1855,0.1861,0.1879,0.1849,0.194,0.1942,0.1944,0.1962,0.1967,0.1971,0,0,0,0,0,0.1723,0.1749,0.1746,0.1752,0.1783,0.1809,0.1813,0.1814,0.1803,0.1817,0.1825,0.1819,0.1873,0.1858,0.1865,0.1884,0.1939,0.1941,0.1944,0.196,0.1966,0.1971,0,0,0,0,0,0,0.1737,0.1751,0.1747,0.1779,0.1793,0.1807,0.1824,0.182,0.1838,0.1835,0.1838,0.1842,0.1874,0.1882,0.1865,0.1921,0.1905,0.1909,0.1915,0.192,0.1924,0.1922,0.1851,0,0,0,0,0,0.1744,0.1763,0.1774,0.1802,0.1808,0.1815,0.1826,0.1827,0.1841,0.1847,0.1857,0.1872,0.1893,0.1907,0.1926,0.1963,0.1968,0.198,0.1984,0.1988,0.1992,0.2014,0.202,0.1955,0.1955,0.1955,0,0,0.1758,0.1768,0.178,0.1805,0.1815,0.1836,0.182,0.1842,0.1858,0.1851,0.1881,0.1889,0.1906,0.1941,0.1956,0.1948,0.2011,0.1991,0.1994,0.1996,0.2017,0.2024,0.2029,0.1957,0.1956,0.1956,0,0,0.1795,0.1804,0.1829,0.184,0.1856,0.186,0.1866,0.1881,0.1886,0.1916,0.1911,0.1931,0.1966,0.1979,0.199,0.2034,0.203,0.2041,0.2063,0.2085,0.209,0.2094,0.2112,0.2118,0.2044,0.2044,0.2044,0,0.1812,0.1842,0.1842,0.1865,0.1877,0.187,0.1896,0.1907,0.1929,0.1938,0.1929,0.1974,0.1985,0.2024,0.2035,0.2043,0.2052,0.2039,0.2089,0.2094,0.2098,0.2115,0.2121,0.2046,0.2046,0.2045,0.2045,0,0.1862,0.1883,0.1901,0.1922,0.1936,0.1961,0.1966,0.198,0.1979,0.1985,0.2017,0.203,0.2054,0.2062,0.2062,0.2102,0.2097,0.2088,0.2072,0.2105,0.2121,0.2128,0.2048,0.2047,0.2047,0.2046,0,0,0.1909,0.1931,0.1937,0.1948,0.1965,0.1983,0.2008,0.203,0.2043,0.2058,0.2081,0.2111,0.2104,0.2117,0.2118,0.2137,0.2173,0.2126,0.2127,0.2136,0.222,0.2228,0.2235,0.217,0.2171,0.2172,0.222,0,0.1949,0.1992,0.1994,0.2034,0.2055,0.2049,0.2071,0.2086,0.2092,0.2112,0.2119,0.2142,0.2129,0.2137,0.2155,0.2165,0.2191,0.2161,0.2193,0.2194,0.219,0.2243,0.2251,0.2295,0.2226,0.2227,0.2227,0,0.2002,0.2019,0.2061,0.2077,0.2086,0.2106,0.2127,0.2145,0.2162,0.2166,0.2181,0.2179,0.2207,0.2189,0.2228,0.2208,0.2221,0.2228,0.223,0.2234,0.2214,0.2251,0.2308,0.2316,0.2237,0.2236,0.2235,0,0.2035,0.2068,0.2098,0.2107,0.2126,0.214,0.2149,0.2165,0.2178,0.2197,0.2207,0.2229,0.2241,0.2259,0.2265,0.2251,0.2305,0.2287,0.231,0.231,0.2323,0.2322,0.2386,0.2329,0.2329,0.2328,0.2328,0,0.208,0.2106,0.2113,0.2132,0.2162,0.2164,0.2194,0.2202,0.2216,0.2238,0.2234,0.2254,0.226,0.2282,0.2286,0.2319,0.2325,0.233,0.2331,0.2331,0.2331,0.2341,0.2339,0.233,0.233,0.2329,0.2329,0,0.2122,0.2127,0.216,0.2175,0.218,0.2202,0.2216,0.2235,0.2241,0.2268,0.2275,0.2285,0.2311,0.2318,0.2349,0.2352,0.2392,0.2389,0.2386,0.2386,0.2411,0.2409,0.2484,0.2495,0.2429,0.2429,0.243,0,0.2151,0.2172,0.219,0.2203,0.2213,0.2235,0.2249,0.2252,0.2267,0.2289,0.2305,0.2331,0.2351,0.2393,0.2404,0.2428,0.2428,0.2452,0.2431,0.2431,0.2431,0.243,0.2433,0.2457,0.2457,0.2458,0.2458,0,0.2204,0.2206,0.2226,0.2247,0.2264,0.2281,0.2297,0.2309,0.2315,0.2333,0.2359,0.2374,0.2406,0.2432,0.2457,0.2468,0.2465,0.2465,0.2472,0.2473,0.2471,0.2475,0.2399,0.2463,0.2463,0.2462,0.2462,0.2462,0.2242,0.226,0.2276,0.2299,0.2312,0.2328,0.2347,0.2355,0.2377,0.2402,0.2403,0.2432,0.245,0.2483,0.2495,0.2519,0.2512,0.2522,0.2525,0.2528,0.2531,0.2466,0.2524,0.2523,0.2523,0.2523,0.2523,0,0.2296,0.2306,0.2327,0.235,0.2369,0.2363,0.2381,0.2398,0.2423,0.2439,0.246,0.2491,0.2516,0.253,0.2556,0.2572,0.2572,0.2579,0.2579,0.2582,0.2535,0.2527,0.2579,0.2579,0.2579,0.2579,0.2579,0.2579,0.2326,0.2358,0.2362,0.2401,0.2411,0.2438,0.245,0.2465,0.2479,0.2513,0.2534,0.2542,0.2558,0.2586,0.2609,0.2613,0.2624,0.2632,0.2635,0.2591,0.2585,0.258,0.2572,0.2634,0.2634,0.2681,0.2681,0.2682]},{"header":{"parameterUnit":"m.s-1","parameterCategory":1,"la1":30.2991,"la2":30.254,"lo1":-89.0895,"lo2":-89.0444,"dy":0.0017,"dx":0.0017,"nx":28,"ny":28,"refTime":"2025-08-24T09:00:00:Z","depth":0,"parameterNumber":3,"parameterNumberName":"V-component_of_WINDS"},"data":[0,0,0,0,0,0,0,0,0,0,0,0,0,0,0,0,0,0,0,0,0,0,0,0,0,0,0,0,0,0,0,0,0,0,0,0,0,0,0,0,0,0,0,0,0,0,0,0,0,0,0,0,0,0,0,0,0,0,-2.8135,-2.8135,0,-2.8186,-2.8186,-2.8187,-2.8195,-2.8194,-2.8194,-2.8193,-2.8242,-2.8243,-2.8245,0,0,0,0,0,0,0,0,0,0,0,0,0,-2.8041,-2.8042,-2.8134,-2.8135,-2.8136,-2.8186,-2.8186,-2.8187,-2.8195,-2.8194,-2.8194,-2.8193,-2.8241,-2.8243,-2.8245,0,0,0,0,0,0,0,0,0,0,0,0,0,-2.8085,-2.8043,-2.8134,-2.8146,-2.8147,-2.8185,-2.8186,-2.8187,-2.8195,-2.8194,-2.8194,-2.8193,-2.824,-2.8243,-2.8245,-2.8274,0,0,-2.8253,-2.8254,0,0,0,0,0,0,0,0,-2.8083,-2.8089,-2.8143,-2.8145,-2.8147,-2.8183,-2.8171,-2.8216,-2.8195,-2.8177,-2.8193,-2.8193,-2.8222,-2.8226,-2.8237,-2.8277,-2.8279,-2.8253,-2.8255,-2.8256,-2.8257,0,0,0,0,0,0,0,-2.808,-2.8087,-2.8155,-2.8144,-2.8146,-2.8147,-2.8153,-2.818,-2.8202,-2.8178,-2.8179,-2.8185,-2.8223,-2.8235,-2.8239,-2.828,-2.8253,-2.8256,-2.8257,-2.8258,-2.8347,-2.8347,0,0,0,0,0,0,-2.8075,-2.8084,-2.8153,-2.8156,-2.8113,-2.815,-2.8156,-2.8172,-2.8202,-2.8206,-2.8186,-2.8185,-2.8231,-2.8236,-2.824,-2.8277,-2.8256,-2.8258,-2.826,-2.8346,-2.8347,-2.8348,0,0,0,0,0,0,-2.8073,-2.8081,-2.8151,-2.812,-2.8129,-2.8152,-2.817,-2.8173,-2.8185,-2.8208,-2.8212,-2.8194,-2.8231,-2.8237,-2.8267,-2.8279,-2.826,-2.8262,-2.8345,-2.8346,-2.8347,-2.8351,0,0,0,0,0,0,-2.807,-2.808,-2.8092,-2.8121,-2.8131,-2.8177,-2.8171,-2.8175,-2.819,-2.819,-2.8216,-2.822,-2.823,-2.8263,-2.8269,-2.8282,-2.8264,-2.8344,-2.8345,-2.8347,-2.835,-2.8352,-2.8354,0,0,0,0,0,-2.8067,-2.809,-2.8093,-2.8101,-2.8146,-2.8178,-2.8184,-2.8196,-2.8191,-2.8203,-2.8218,-2.8219,-2.8277,-2.8266,-2.8273,-2.8287,-2.8343,-2.8345,-2.8347,-2.8349,-2.8352,-2.8354,0,0,0,0,0,0,-2.8061,-2.8094,-2.8097,-2.8131,-2.8152,-2.8179,-2.8194,-2.8199,-2.8221,-2.822,-2.8233,-2.8239,-2.8268,-2.8281,-2.8268,-2.8317,-2.8309,-2.8313,-2.8308,-2.8311,-2.8314,-2.831,-2.8266,0,0,0,0,0,-2.8063,-2.8087,-2.8115,-2.8141,-2.8152,-2.8171,-2.8185,-2.8194,-2.8215,-2.8224,-2.8241,-2.8261,-2.8284,-2.8298,-2.832,-2.8352,-2.8358,-2.8365,-2.8367,-2.8369,-2.8372,-2.839,-2.8394,-2.8354,-2.8354,-2.8354,0,0,-2.8069,-2.809,-2.8104,-2.814,-2.8158,-2.8182,-2.8179,-2.8203,-2.8221,-2.8227,-2.8257,-2.827,-2.8293,-2.8325,-2.8339,-2.8336,-2.8384,-2.8371,-2.8372,-2.8374,-2.8393,-2.8396,-2.84,-2.8355,-2.8355,-2.8355,0,0,-2.8091,-2.8109,-2.8134,-2.8152,-2.8179,-2.8192,-2.8198,-2.8226,-2.8235,-2.8266,-2.8271,-2.8292,-2.833,-2.8347,-2.8361,-2.8391,-2.8394,-2.8398,-2.8409,-2.8427,-2.843,-2.8433,-2.8445,-2.8449,-2.84,-2.84,-2.8401,0,-2.8094,-2.8131,-2.8146,-2.8171,-2.8188,-2.8196,-2.8221,-2.8237,-2.8269,-2.828,-2.8276,-2.8326,-2.8342,-2.8378,-2.8386,-2.8396,-2.8403,-2.8395,-2.8429,-2.8432,-2.8435,-2.8446,-2.845,-2.8401,-2.8401,-2.8401,-2.8401,0,-2.8133,-2.8159,-2.8176,-2.8209,-2.8227,-2.8252,-2.827,-2.8286,-2.8293,-2.8307,-2.8338,-2.8358,-2.8385,-2.8394,-2.84,-2.8431,-2.8428,-2.8426,-2.8419,-2.8439,-2.845,-2.8454,-2.8401,-2.8401,-2.8401,-2.8401,0,0,-2.8152,-2.8195,-2.82,-2.8216,-2.8247,-2.8267,-2.8292,-2.8321,-2.8335,-2.8356,-2.8378,-2.8412,-2.8411,-2.8426,-2.8434,-2.845,-2.8474,-2.8447,-2.8447,-2.8452,-2.851,-2.8512,-2.8517,-2.8476,-2.8477,-2.8478,-2.8509,0,-2.8178,-2.8226,-2.8241,-2.828,-2.8304,-2.8313,-2.8336,-2.8357,-2.837,-2.8392,-2.8406,-2.843,-2.8427,-2.8437,-2.8453,-2.8468,-2.8486,-2.8466,-2.8496,-2.8497,-2.849,-2.8522,-2.8523,-2.8552,-2.8513,-2.8513,-2.8514,0,-2.8215,-2.824,-2.8282,-2.8312,-2.8323,-2.8343,-2.837,-2.8391,-2.8415,-2.8424,-2.8442,-2.845,-2.8476,-2.8467,-2.8504,-2.849,-2.8503,-2.8513,-2.8514,-2.8517,-2.8507,-2.8527,-2.8561,-2.8565,-2.8521,-2.852,-2.852,0,-2.8225,-2.8269,-2.8301,-2.8314,-2.8349,-2.8363,-2.8378,-2.8402,-2.8418,-2.8442,-2.8452,-2.8478,-2.8492,-2.8512,-2.8526,-2.8518,-2.8562,-2.8553,-2.8569,-2.8569,-2.8578,-2.8577,-2.8615,-2.8586,-2.8586,-2.8586,-2.8586,0,-2.8253,-2.8279,-2.8306,-2.8325,-2.8355,-2.8371,-2.8399,-2.8414,-2.8436,-2.8458,-2.8467,-2.8487,-2.8504,-2.8526,-2.8537,-2.8567,-2.8573,-2.858,-2.8583,-2.858,-2.8579,-2.8588,-2.8587,-2.8587,-2.8587,-2.8586,-2.8586,0,-2.8269,-2.8289,-2.8324,-2.8355,-2.8364,-2.8384,-2.841,-2.8429,-2.8443,-2.8471,-2.8478,-2.85,-2.8527,-2.8544,-2.8577,-2.8584,-2.8617,-2.8618,-2.8609,-2.8611,-2.8626,-2.8624,-2.8672,-2.8679,-2.8644,-2.8645,-2.8645,0,-2.8286,-2.8306,-2.8341,-2.8357,-2.8373,-2.8398,-2.8416,-2.8433,-2.8451,-2.8481,-2.8496,-2.8524,-2.8547,-2.859,-2.8608,-2.8634,-2.8637,-2.8652,-2.864,-2.8637,-2.8638,-2.8637,-2.8639,-2.8653,-2.8654,-2.8654,-2.8654,0,-2.8314,-2.8323,-2.8349,-2.8378,-2.84,-2.8423,-2.8446,-2.8459,-2.848,-2.8499,-2.8528,-2.8546,-2.8582,-2.8609,-2.8637,-2.8651,-2.8656,-2.8658,-2.8663,-2.866,-2.8654,-2.8658,-2.8615,-2.8656,-2.8656,-2.8656,-2.8656,-2.8656,-2.8331,-2.835,-2.8378,-2.8407,-2.8427,-2.8449,-2.8469,-2.8487,-2.8511,-2.8543,-2.8551,-2.8581,-2.8606,-2.8644,-2.8659,-2.8683,-2.868,-2.8687,-2.8689,-2.8691,-2.8692,-2.865,-2.8687,-2.8687,-2.8687,-2.8687,-2.8687,0,-2.836,-2.8379,-2.8405,-2.8439,-2.8462,-2.8466,-2.8493,-2.8511,-2.8538,-2.8561,-2.8585,-2.8618,-2.8645,-2.8667,-2.8694,-2.8709,-2.8712,-2.8716,-2.8715,-2.8718,-2.8692,-2.8685,-2.8713,-2.8713,-2.8713,-2.8713,-2.8713,-2.8713,-2.8378,-2.8411,-2.8424,-2.8467,-2.8485,-2.8516,-2.8531,-2.8552,-2.857,-2.8608,-2.8632,-2.8646,-2.8668,-2.8698,-2.8723,-2.8729,-2.8739,-2.8742,-2.8748,-2.8723,-2.872,-2.8717,-2.8711,-2.8744,-2.8744,-2.8773,-2.8773,-2.8773]}]]